Location: Newark
(54.0500°N, 12.8333°E)
Time: 16:32:01
(UTC+00:00)

S-56A Canister/Altair - Visible Passes

Search period start: 27 January 2020 00:00
Search period end: 06 February 2020 00:00
Orbit: 634 x 2498 km, 38.9° (Epoch: 26 January)

Date Brightness Start Highest point End Pass type
(mag) Time Alt. Az. Time Alt. Az. Time Alt. Az.
27 Jan 10.3 19:41:39 10° SSW 19:41:56 11° SSW 19:41:56 11° SSW visible
28 Jan 9.9 19:08:41 10° SSW 19:11:09 15° S 19:11:09 15° S visible
29 Jan 9.7 18:35:40 10° SSW 18:40:00 17° S 18:40:21 17° SSE visible
30 Jan 9.7 18:02:36 10° SSW 18:07:24 17° S 18:09:32 15° SSE visible
30 Jan 10.3 20:06:02 10° SW 20:06:58 12° SW 20:06:58 12° SW visible
31 Jan 9.9 17:29:31 10° SSW 17:34:47 18° SSE 17:38:43 11° SE visible
31 Jan 9.9 19:32:52 10° SW 19:36:08 18° SSW 19:36:08 18° SSW visible
01 Feb 10.1 16:56:24 10° SSW 17:02:06 18° SSE 17:06:39 10° SE visible
01 Feb 9.6 18:59:39 10° SW 19:05:03 21° S 19:05:19 21° S visible
02 Feb 10.2 16:23:17 10° SSW 16:29:24 19° SSE 16:34:16 10° ESE visible
02 Feb 9.5 18:26:24 10° SW 18:32:28 23° S 18:34:28 20° SSE visible
02 Feb 10.5 20:31:31 10° WSW 20:31:54 11° SW 20:31:54 11° SW visible
03 Feb 9.7 17:53:05 10° SW 17:59:50 24° S 18:03:38 15° SE visible
03 Feb 10.1 19:58:04 10° WSW 20:01:04 16° SW 20:01:04 16° SW visible
04 Feb 10.0 17:19:45 10° SW 17:27:09 25° S 17:32:39 10° SE visible
04 Feb 9.8 19:24:38 10° WSW 19:29:57 20° SSW 19:30:13 20° SSW visible
05 Feb 10.1 16:46:23 10° SW 16:54:25 26° S 17:00:21 10° ESE visible
05 Feb 9.7 18:51:12 10° WSW 18:57:23 22° SSW 18:59:23 20° S visible
